<?xml version="1.0" encoding="UTF-8" standalone="no" ?>
<gpx xmlns="http://www.topografix.com/GPX/1/1" xmlns:xsi="http://www.w3.org/2001/XMLSchema-instance" xsi:schemaLocation="http://www.topografix.com/GPX/1/1 http://www.topografix.com/GPX/1/1/gpx.xsd" version="1.1" creator="VisuGPX - https://www.visugpx.com">
  <metadata>
    <name>65 - RAQUETTES - Couraduque - Piste Mystériseuse</name>
    <desc><![CDATA[Randonnée en lieu sécurisé à cause du risque d'avalanches 4/5 Soleil]]></desc>
  </metadata>
  <trk>
    <name><![CDATA[ACTIVE LOG 001]]></name>
    <trkseg>
      <trkpt lat="42.99032" lon="-0.20206">
        <ele>1372.419434</ele>
        <time>2013-02-16T08:47:21Z</time>
      </trkpt>
      <trkpt lat="42.99033" lon="-0.20206">
        <ele>1372.419434</ele>
        <time>2013-02-16T08:47:22Z</time>
      </trkpt>
      <trkpt lat="42.99033" lon="-0.20206">
        <ele>1371.457764</ele>
        <time>2013-02-16T08:47:23Z</time>
      </trkpt>
      <trkpt lat="42.99035" lon="-0.20204">
        <ele>1368.573975</ele>
        <time>2013-02-16T08:47:36Z</time>
      </trkpt>
      <trkpt lat="42.99037" lon="-0.20204">
        <ele>1371.938477</ele>
        <time>2013-02-16T08:47:50Z</time>
      </trkpt>
      <trkpt lat="42.99039" lon="-0.20206">
        <ele>1371.457764</ele>
        <time>2013-02-16T08:48:15Z</time>
      </trkpt>
      <trkpt lat="42.99059" lon="-0.20218">
        <ele>1371.457764</ele>
        <time>2013-02-16T08:48:38Z</time>
      </trkpt>
      <trkpt lat="42.99074" lon="-0.2025">
        <ele>1370.496582</ele>
        <time>2013-02-16T08:49:02Z</time>
      </trkpt>
      <trkpt lat="42.9909" lon="-0.20264">
        <ele>1370.015869</ele>
        <time>2013-02-16T08:49:18Z</time>
      </trkpt>
      <trkpt lat="42.99094" lon="-0.20268">
        <ele>1369.5354</ele>
        <time>2013-02-16T08:49:23Z</time>
      </trkpt>
      <trkpt lat="42.99098" lon="-0.20271">
        <ele>1369.054688</ele>
        <time>2013-02-16T08:49:27Z</time>
      </trkpt>
      <trkpt lat="42.99101" lon="-0.20272">
        <ele>1369.5354</ele>
        <time>2013-02-16T08:49:47Z</time>
      </trkpt>
      <trkpt lat="42.99099" lon="-0.2028">
        <ele>1369.5354</ele>
        <time>2013-02-16T08:50:07Z</time>
      </trkpt>
      <trkpt lat="42.99099" lon="-0.20281">
        <ele>1369.5354</ele>
        <time>2013-02-16T08:50:08Z</time>
      </trkpt>
      <trkpt lat="42.99103" lon="-0.20305">
        <ele>1369.5354</ele>
        <time>2013-02-16T08:50:28Z</time>
      </trkpt>
      <trkpt lat="42.99106" lon="-0.20293">
        <ele>1371.938477</ele>
        <time>2013-02-16T08:50:43Z</time>
      </trkpt>
      <trkpt lat="42.99106" lon="-0.20289">
        <ele>1371.938477</ele>
        <time>2013-02-16T08:51:00Z</time>
      </trkpt>
      <trkpt lat="42.99106" lon="-0.20288">
        <ele>1371.457764</ele>
        <time>2013-02-16T08:51:01Z</time>
      </trkpt>
      <trkpt lat="42.99106" lon="-0.20274">
        <ele>1371.457764</ele>
        <time>2013-02-16T08:51:15Z</time>
      </trkpt>
      <trkpt lat="42.99104" lon="-0.20259">
        <ele>1371.938477</ele>
        <time>2013-02-16T08:51:35Z</time>
      </trkpt>
      <trkpt lat="42.99104" lon="-0.20259">
        <ele>1371.938477</ele>
        <time>2013-02-16T08:52:00Z</time>
      </trkpt>
      <trkpt lat="42.99104" lon="-0.20261">
        <ele>1371.938477</ele>
        <time>2013-02-16T08:52:30Z</time>
      </trkpt>
      <trkpt lat="42.99104" lon="-0.20262">
        <ele>1371.938477</ele>
        <time>2013-02-16T08:52:46Z</time>
      </trkpt>
      <trkpt lat="42.99104" lon="-0.20261">
        <ele>1371.457764</ele>
        <time>2013-02-16T08:53:10Z</time>
      </trkpt>
      <trkpt lat="42.99104" lon="-0.20261">
        <ele>1370.496582</ele>
        <time>2013-02-16T08:53:35Z</time>
      </trkpt>
      <trkpt lat="42.99103" lon="-0.20261">
        <ele>1371.457764</ele>
        <time>2013-02-16T08:53:37Z</time>
      </trkpt>
      <trkpt lat="42.99103" lon="-0.20259">
        <ele>1370.015869</ele>
        <time>2013-02-16T08:54:03Z</time>
      </trkpt>
      <trkpt lat="42.99103" lon="-0.20256">
        <ele>1372.419434</ele>
        <time>2013-02-16T08:54:19Z</time>
      </trkpt>
      <trkpt lat="42.99103" lon="-0.20253">
        <ele>1372.900146</ele>
        <time>2013-02-16T08:54:33Z</time>
      </trkpt>
      <trkpt lat="42.99101" lon="-0.20242">
        <ele>1374.342041</ele>
        <time>2013-02-16T08:55:05Z</time>
      </trkpt>
      <trkpt lat="42.99099" lon="-0.20236">
        <ele>1374.822754</ele>
        <time>2013-02-16T08:55:10Z</time>
      </trkpt>
      <trkpt lat="42.99094" lon="-0.20217">
        <ele>1377.226074</ele>
        <time>2013-02-16T08:55:28Z</time>
      </trkpt>
      <trkpt lat="42.99081" lon="-0.20197">
        <ele>1377.706543</ele>
        <time>2013-02-16T08:55:51Z</time>
      </trkpt>
      <trkpt lat="42.99076" lon="-0.20169">
        <ele>1377.706543</ele>
        <time>2013-02-16T08:56:14Z</time>
      </trkpt>
      <trkpt lat="42.99069" lon="-0.20144">
        <ele>1379.62915</ele>
        <time>2013-02-16T08:56:35Z</time>
      </trkpt>
      <trkpt lat="42.99064" lon="-0.20129">
        <ele>1382.032471</ele>
        <time>2013-02-16T08:56:49Z</time>
      </trkpt>
      <trkpt lat="42.99056" lon="-0.20103">
        <ele>1383.955078</ele>
        <time>2013-02-16T08:57:13Z</time>
      </trkpt>
      <trkpt lat="42.9905" lon="-0.20079">
        <ele>1386.838867</ele>
        <time>2013-02-16T08:57:36Z</time>
      </trkpt>
      <trkpt lat="42.99044" lon="-0.20056">
        <ele>1389.723145</ele>
        <time>2013-02-16T08:57:59Z</time>
      </trkpt>
      <trkpt lat="42.99041" lon="-0.20039">
        <ele>1393.087646</ele>
        <time>2013-02-16T08:58:15Z</time>
      </trkpt>
      <trkpt lat="42.9904" lon="-0.20015">
        <ele>1394.529541</ele>
        <time>2013-02-16T08:58:38Z</time>
      </trkpt>
      <trkpt lat="42.99043" lon="-0.20012">
        <ele>1395.490967</ele>
        <time>2013-02-16T08:58:54Z</time>
      </trkpt>
      <trkpt lat="42.99035" lon="-0.20016">
        <ele>1395.490967</ele>
        <time>2013-02-16T08:59:11Z</time>
      </trkpt>
      <trkpt lat="42.99039" lon="-0.20011">
        <ele>1395.010254</ele>
        <time>2013-02-16T08:59:37Z</time>
      </trkpt>
      <trkpt lat="42.99041" lon="-0.20006">
        <ele>1394.529541</ele>
        <time>2013-02-16T08:59:51Z</time>
      </trkpt>
      <trkpt lat="42.9904" lon="-0.20009">
        <ele>1394.529541</ele>
        <time>2013-02-16T09:00:41Z</time>
      </trkpt>
    </trkseg>
  </trk>
  <trk>
    <name><![CDATA[ACTIVE LOG 002]]></name>
    <trkseg>
      <trkpt lat="42.99041" lon="-0.20007">
        <ele>1395.97168</ele>
        <time>2013-02-16T09:01:23Z</time>
      </trkpt>
    </trkseg>
  </trk>
  <trk>
    <name><![CDATA[ACTIVE LOG 003]]></name>
    <trkseg>
      <trkpt lat="42.9904" lon="-0.20003">
        <ele>1394.529541</ele>
        <time>2013-02-16T09:01:24Z</time>
      </trkpt>
      <trkpt lat="42.99039" lon="-0.20008">
        <ele>1394.529541</ele>
        <time>2013-02-16T09:01:25Z</time>
      </trkpt>
      <trkpt lat="42.9904" lon="-0.20005">
        <ele>1395.010254</ele>
        <time>2013-02-16T09:02:05Z</time>
      </trkpt>
      <trkpt lat="42.99042" lon="-0.20005">
        <ele>1394.529541</ele>
        <time>2013-02-16T09:02:36Z</time>
      </trkpt>
      <trkpt lat="42.99041" lon="-0.20006">
        <ele>1396.452393</ele>
        <time>2013-02-16T09:02:45Z</time>
      </trkpt>
      <trkpt lat="42.99043" lon="-0.20012">
        <ele>1395.97168</ele>
        <time>2013-02-16T09:03:01Z</time>
      </trkpt>
      <trkpt lat="42.99044" lon="-0.20011">
        <ele>1395.97168</ele>
        <time>2013-02-16T09:03:02Z</time>
      </trkpt>
      <trkpt lat="42.99058" lon="-0.20003">
        <ele>1396.932861</ele>
        <time>2013-02-16T09:03:20Z</time>
      </trkpt>
      <trkpt lat="42.99082" lon="-0.19991">
        <ele>1395.490967</ele>
        <time>2013-02-16T09:03:44Z</time>
      </trkpt>
      <trkpt lat="42.99107" lon="-0.19984">
        <ele>1393.087646</ele>
        <time>2013-02-16T09:04:08Z</time>
      </trkpt>
      <trkpt lat="42.99121" lon="-0.19962">
        <ele>1390.684326</ele>
        <time>2013-02-16T09:04:28Z</time>
      </trkpt>
      <trkpt lat="42.99134" lon="-0.19939">
        <ele>1387.800293</ele>
        <time>2013-02-16T09:04:47Z</time>
      </trkpt>
      <trkpt lat="42.99146" lon="-0.19909">
        <ele>1386.838867</ele>
        <time>2013-02-16T09:05:10Z</time>
      </trkpt>
      <trkpt lat="42.99154" lon="-0.19873">
        <ele>1387.800293</ele>
        <time>2013-02-16T09:05:34Z</time>
      </trkpt>
      <trkpt lat="42.99162" lon="-0.19846">
        <ele>1388.28125</ele>
        <time>2013-02-16T09:05:55Z</time>
      </trkpt>
      <trkpt lat="42.99168" lon="-0.19832">
        <ele>1388.761963</ele>
        <time>2013-02-16T09:06:06Z</time>
      </trkpt>
      <trkpt lat="42.99178" lon="-0.19807">
        <ele>1388.28125</ele>
        <time>2013-02-16T09:06:27Z</time>
      </trkpt>
      <trkpt lat="42.99189" lon="-0.19778">
        <ele>1386.838867</ele>
        <time>2013-02-16T09:06:51Z</time>
      </trkpt>
      <trkpt lat="42.99191" lon="-0.19748">
        <ele>1386.838867</ele>
        <time>2013-02-16T09:07:12Z</time>
      </trkpt>
      <trkpt lat="42.99193" lon="-0.19707">
        <ele>1384.916504</ele>
        <time>2013-02-16T09:07:39Z</time>
      </trkpt>
      <trkpt lat="42.99193" lon="-0.19692">
        <ele>1383.474365</ele>
        <time>2013-02-16T09:07:49Z</time>
      </trkpt>
      <trkpt lat="42.99191" lon="-0.1966">
        <ele>1381.071289</ele>
        <time>2013-02-16T09:08:10Z</time>
      </trkpt>
      <trkpt lat="42.99189" lon="-0.1963">
        <ele>1379.148438</ele>
        <time>2013-02-16T09:08:29Z</time>
      </trkpt>
      <trkpt lat="42.99188" lon="-0.19597">
        <ele>1376.745361</ele>
        <time>2013-02-16T09:08:49Z</time>
      </trkpt>
      <trkpt lat="42.9919" lon="-0.19573">
        <ele>1374.342041</ele>
        <time>2013-02-16T09:09:08Z</time>
      </trkpt>
      <trkpt lat="42.9919" lon="-0.19561">
        <ele>1373.380859</ele>
        <time>2013-02-16T09:09:35Z</time>
      </trkpt>
      <trkpt lat="42.99187" lon="-0.19531">
        <ele>1370.015869</ele>
        <time>2013-02-16T09:09:56Z</time>
      </trkpt>
      <trkpt lat="42.99183" lon="-0.19509">
        <ele>1366.651367</ele>
        <time>2013-02-16T09:10:12Z</time>
      </trkpt>
      <trkpt lat="42.99182" lon="-0.1949">
        <ele>1363.767334</ele>
        <time>2013-02-16T09:10:27Z</time>
      </trkpt>
      <trkpt lat="42.99182" lon="-0.19468">
        <ele>1360.402832</ele>
        <time>2013-02-16T09:10:44Z</time>
      </trkpt>
      <trkpt lat="42.99183" lon="-0.19459">
        <ele>1359.44165</ele>
        <time>2013-02-16T09:11:02Z</time>
      </trkpt>
      <trkpt lat="42.9919" lon="-0.19435">
        <ele>1357.519043</ele>
        <time>2013-02-16T09:11:22Z</time>
      </trkpt>
      <trkpt lat="42.99206" lon="-0.19416">
        <ele>1358.480225</ele>
        <time>2013-02-16T09:11:43Z</time>
      </trkpt>
      <trkpt lat="42.99209" lon="-0.19414">
        <ele>1359.44165</ele>
        <time>2013-02-16T09:11:46Z</time>
      </trkpt>
      <trkpt lat="42.99219" lon="-0.194">
        <ele>1358.960938</ele>
        <time>2013-02-16T09:12:03Z</time>
      </trkpt>
      <trkpt lat="42.99231" lon="-0.19392">
        <ele>1359.44165</ele>
        <time>2013-02-16T09:12:23Z</time>
      </trkpt>
      <trkpt lat="42.9924" lon="-0.19381">
        <ele>1358.960938</ele>
        <time>2013-02-16T09:12:47Z</time>
      </trkpt>
      <trkpt lat="42.99244" lon="-0.19373">
        <ele>1360.402832</ele>
        <time>2013-02-16T09:13:02Z</time>
      </trkpt>
      <trkpt lat="42.99249" lon="-0.19366">
        <ele>1361.364258</ele>
        <time>2013-02-16T09:13:15Z</time>
      </trkpt>
      <trkpt lat="42.99263" lon="-0.19344">
        <ele>1360.883545</ele>
        <time>2013-02-16T09:13:37Z</time>
      </trkpt>
      <trkpt lat="42.99269" lon="-0.19333">
        <ele>1362.325439</ele>
        <time>2013-02-16T09:13:53Z</time>
      </trkpt>
      <trkpt lat="42.99288" lon="-0.19311">
        <ele>1364.248047</ele>
        <time>2013-02-16T09:14:17Z</time>
      </trkpt>
      <trkpt lat="42.99308" lon="-0.19301">
        <ele>1366.170654</ele>
        <time>2013-02-16T09:14:38Z</time>
      </trkpt>
      <trkpt lat="42.99312" lon="-0.19303">
        <ele>1366.651367</ele>
        <time>2013-02-16T09:14:43Z</time>
      </trkpt>
      <trkpt lat="42.99327" lon="-0.19326">
        <ele>1366.651367</ele>
        <time>2013-02-16T09:15:05Z</time>
      </trkpt>
      <trkpt lat="42.99345" lon="-0.19343">
        <ele>1366.170654</ele>
        <time>2013-02-16T09:15:25Z</time>
      </trkpt>
      <trkpt lat="42.99366" lon="-0.19355">
        <ele>1365.690186</ele>
        <time>2013-02-16T09:15:46Z</time>
      </trkpt>
      <trkpt lat="42.99392" lon="-0.19366">
        <ele>1364.72876</ele>
        <time>2013-02-16T09:16:09Z</time>
      </trkpt>
      <trkpt lat="42.99417" lon="-0.19379">
        <ele>1364.248047</ele>
        <time>2013-02-16T09:16:32Z</time>
      </trkpt>
      <trkpt lat="42.99443" lon="-0.19394">
        <ele>1364.248047</ele>
        <time>2013-02-16T09:16:57Z</time>
      </trkpt>
      <trkpt lat="42.99464" lon="-0.19405">
        <ele>1363.286865</ele>
        <time>2013-02-16T09:17:16Z</time>
      </trkpt>
      <trkpt lat="42.9949" lon="-0.19411">
        <ele>1362.806152</ele>
        <time>2013-02-16T09:17:38Z</time>
      </trkpt>
      <trkpt lat="42.99518" lon="-0.19404">
        <ele>1363.286865</ele>
        <time>2013-02-16T09:18:01Z</time>
      </trkpt>
      <trkpt lat="42.99543" lon="-0.19396">
        <ele>1360.883545</ele>
        <time>2013-02-16T09:18:23Z</time>
      </trkpt>
      <trkpt lat="42.99573" lon="-0.1938">
        <ele>1360.402832</ele>
        <time>2013-02-16T09:18:49Z</time>
      </trkpt>
      <trkpt lat="42.99601" lon="-0.19359">
        <ele>1359.44165</ele>
        <time>2013-02-16T09:19:16Z</time>
      </trkpt>
      <trkpt lat="42.99628" lon="-0.19339">
        <ele>1357.519043</ele>
        <time>2013-02-16T09:19:42Z</time>
      </trkpt>
      <trkpt lat="42.99646" lon="-0.19329">
        <ele>1356.076904</ele>
        <time>2013-02-16T09:19:58Z</time>
      </trkpt>
      <trkpt lat="42.99651" lon="-0.19325">
        <ele>1356.076904</ele>
        <time>2013-02-16T09:20:02Z</time>
      </trkpt>
      <trkpt lat="42.99681" lon="-0.19304">
        <ele>1354.634766</ele>
        <time>2013-02-16T09:20:31Z</time>
      </trkpt>
      <trkpt lat="42.99708" lon="-0.19289">
        <ele>1352.231445</ele>
        <time>2013-02-16T09:20:55Z</time>
      </trkpt>
      <trkpt lat="42.99737" lon="-0.19267">
        <ele>1351.750977</ele>
        <time>2013-02-16T09:21:23Z</time>
      </trkpt>
      <trkpt lat="42.99767" lon="-0.19257">
        <ele>1349.828369</ele>
        <time>2013-02-16T09:21:48Z</time>
      </trkpt>
      <trkpt lat="42.99794" lon="-0.19257">
        <ele>1348.866943</ele>
        <time>2013-02-16T09:22:11Z</time>
      </trkpt>
      <trkpt lat="42.9981" lon="-0.19274">
        <ele>1349.828369</ele>
        <time>2013-02-16T09:22:28Z</time>
      </trkpt>
      <trkpt lat="42.99824" lon="-0.19299">
        <ele>1348.866943</ele>
        <time>2013-02-16T09:22:49Z</time>
      </trkpt>
      <trkpt lat="42.99842" lon="-0.19284">
        <ele>1346.944336</ele>
        <time>2013-02-16T09:23:08Z</time>
      </trkpt>
      <trkpt lat="42.99858" lon="-0.19267">
        <ele>1346.463867</ele>
        <time>2013-02-16T09:23:25Z</time>
      </trkpt>
      <trkpt lat="42.99879" lon="-0.19245">
        <ele>1344.541016</ele>
        <time>2013-02-16T09:23:46Z</time>
      </trkpt>
      <trkpt lat="42.99895" lon="-0.1923">
        <ele>1342.618652</ele>
        <time>2013-02-16T09:24:06Z</time>
      </trkpt>
      <trkpt lat="42.99904" lon="-0.19225">
        <ele>1343.099121</ele>
        <time>2013-02-16T09:24:26Z</time>
      </trkpt>
      <trkpt lat="42.99918" lon="-0.1922">
        <ele>1341.657227</ele>
        <time>2013-02-16T09:24:41Z</time>
      </trkpt>
      <trkpt lat="42.99944" lon="-0.19208">
        <ele>1339.734375</ele>
        <time>2013-02-16T09:25:04Z</time>
      </trkpt>
      <trkpt lat="42.99968" lon="-0.19193">
        <ele>1337.331055</ele>
        <time>2013-02-16T09:25:26Z</time>
      </trkpt>
      <trkpt lat="42.99987" lon="-0.19179">
        <ele>1336.850342</ele>
        <time>2013-02-16T09:25:45Z</time>
      </trkpt>
      <trkpt lat="43.00008" lon="-0.19169">
        <ele>1335.408447</ele>
        <time>2013-02-16T09:26:02Z</time>
      </trkpt>
      <trkpt lat="43.00029" lon="-0.19163">
        <ele>1332.524658</ele>
        <time>2013-02-16T09:26:20Z</time>
      </trkpt>
      <trkpt lat="43.00059" lon="-0.19162">
        <ele>1331.082764</ele>
        <time>2013-02-16T09:26:43Z</time>
      </trkpt>
      <trkpt lat="43.00084" lon="-0.19163">
        <ele>1329.640625</ele>
        <time>2013-02-16T09:27:04Z</time>
      </trkpt>
      <trkpt lat="43.00109" lon="-0.19165">
        <ele>1326.756836</ele>
        <time>2013-02-16T09:27:25Z</time>
      </trkpt>
      <trkpt lat="43.00133" lon="-0.19165">
        <ele>1325.79541</ele>
        <time>2013-02-16T09:27:44Z</time>
      </trkpt>
      <trkpt lat="43.00165" lon="-0.19156">
        <ele>1322.430664</ele>
        <time>2013-02-16T09:28:09Z</time>
      </trkpt>
      <trkpt lat="43.00195" lon="-0.19138">
        <ele>1320.98877</ele>
        <time>2013-02-16T09:28:35Z</time>
      </trkpt>
      <trkpt lat="43.00214" lon="-0.19118">
        <ele>1319.066162</ele>
        <time>2013-02-16T09:28:55Z</time>
      </trkpt>
      <trkpt lat="43.00232" lon="-0.19088">
        <ele>1318.104736</ele>
        <time>2013-02-16T09:29:18Z</time>
      </trkpt>
      <trkpt lat="43.00242" lon="-0.19057">
        <ele>1316.662842</ele>
        <time>2013-02-16T09:29:37Z</time>
      </trkpt>
      <trkpt lat="43.00246" lon="-0.19027">
        <ele>1313.29834</ele>
        <time>2013-02-16T09:29:54Z</time>
      </trkpt>
      <trkpt lat="43.00247" lon="-0.18995">
        <ele>1313.29834</ele>
        <time>2013-02-16T09:30:13Z</time>
      </trkpt>
      <trkpt lat="43.00248" lon="-0.18965">
        <ele>1310.414307</ele>
        <time>2013-02-16T09:30:30Z</time>
      </trkpt>
      <trkpt lat="43.00241" lon="-0.18944">
        <ele>1310.414307</ele>
        <time>2013-02-16T09:30:45Z</time>
      </trkpt>
      <trkpt lat="43.00217" lon="-0.18921">
        <ele>1308.972412</ele>
        <time>2013-02-16T09:31:08Z</time>
      </trkpt>
      <trkpt lat="43.00202" lon="-0.18887">
        <ele>1306.568848</ele>
        <time>2013-02-16T09:31:32Z</time>
      </trkpt>
      <trkpt lat="43.0019" lon="-0.18856">
        <ele>1304.165771</ele>
        <time>2013-02-16T09:31:53Z</time>
      </trkpt>
      <trkpt lat="43.0018" lon="-0.18815">
        <ele>1302.24292</ele>
        <time>2013-02-16T09:32:18Z</time>
      </trkpt>
      <trkpt lat="43.00179" lon="-0.18775">
        <ele>1299.839844</ele>
        <time>2013-02-16T09:32:40Z</time>
      </trkpt>
      <trkpt lat="43.00178" lon="-0.18737">
        <ele>1298.397705</ele>
        <time>2013-02-16T09:32:59Z</time>
      </trkpt>
      <trkpt lat="43.00182" lon="-0.18702">
        <ele>1295.513916</ele>
        <time>2013-02-16T09:33:19Z</time>
      </trkpt>
      <trkpt lat="43.00189" lon="-0.18672">
        <ele>1293.591309</ele>
        <time>2013-02-16T09:33:40Z</time>
      </trkpt>
      <trkpt lat="43.002" lon="-0.1864">
        <ele>1292.630127</ele>
        <time>2013-02-16T09:34:01Z</time>
      </trkpt>
      <trkpt lat="43.00209" lon="-0.18603">
        <ele>1291.187744</ele>
        <time>2013-02-16T09:34:24Z</time>
      </trkpt>
      <trkpt lat="43.00217" lon="-0.1857">
        <ele>1288.784668</ele>
        <time>2013-02-16T09:34:44Z</time>
      </trkpt>
      <trkpt lat="43.00227" lon="-0.18534">
        <ele>1286.381348</ele>
        <time>2013-02-16T09:35:07Z</time>
      </trkpt>
      <trkpt lat="43.00235" lon="-0.18496">
        <ele>1284.45874</ele>
        <time>2013-02-16T09:35:31Z</time>
      </trkpt>
      <trkpt lat="43.00238" lon="-0.18453">
        <ele>1282.05542</ele>
        <time>2013-02-16T09:35:52Z</time>
      </trkpt>
      <trkpt lat="43.00234" lon="-0.1842">
        <ele>1281.094238</ele>
        <time>2013-02-16T09:36:12Z</time>
      </trkpt>
      <trkpt lat="43.00223" lon="-0.18386">
        <ele>1280.613525</ele>
        <time>2013-02-16T09:36:34Z</time>
      </trkpt>
      <trkpt lat="43.00226" lon="-0.18345">
        <ele>1277.729492</ele>
        <time>2013-02-16T09:36:57Z</time>
      </trkpt>
      <trkpt lat="43.00234" lon="-0.18314">
        <ele>1276.287598</ele>
        <time>2013-02-16T09:37:15Z</time>
      </trkpt>
      <trkpt lat="43.0024" lon="-0.18276">
        <ele>1274.364746</ele>
        <time>2013-02-16T09:37:36Z</time>
      </trkpt>
      <trkpt lat="43.00246" lon="-0.18254">
        <ele>1272.442139</ele>
        <time>2013-02-16T09:37:51Z</time>
      </trkpt>
      <trkpt lat="43.0026" lon="-0.18231">
        <ele>1270.519531</ele>
        <time>2013-02-16T09:38:09Z</time>
      </trkpt>
      <trkpt lat="43.00284" lon="-0.18218">
        <ele>1267.635498</ele>
        <time>2013-02-16T09:38:29Z</time>
      </trkpt>
      <trkpt lat="43.00312" lon="-0.18214">
        <ele>1264.270996</ele>
        <time>2013-02-16T09:38:52Z</time>
      </trkpt>
      <trkpt lat="43.00337" lon="-0.18208">
        <ele>1263.309814</ele>
        <time>2013-02-16T09:39:13Z</time>
      </trkpt>
      <trkpt lat="43.00361" lon="-0.18196">
        <ele>1261.387207</ele>
        <time>2013-02-16T09:39:34Z</time>
      </trkpt>
      <trkpt lat="43.00383" lon="-0.18175">
        <ele>1258.022461</ele>
        <time>2013-02-16T09:39:55Z</time>
      </trkpt>
      <trkpt lat="43.00401" lon="-0.18142">
        <ele>1256.580322</ele>
        <time>2013-02-16T09:40:18Z</time>
      </trkpt>
      <trkpt lat="43.00409" lon="-0.18107">
        <ele>1254.177246</ele>
        <time>2013-02-16T09:40:37Z</time>
      </trkpt>
      <trkpt lat="43.00412" lon="-0.18073">
        <ele>1251.773926</ele>
        <time>2013-02-16T09:40:58Z</time>
      </trkpt>
      <trkpt lat="43.004" lon="-0.18041">
        <ele>1249.851318</ele>
        <time>2013-02-16T09:41:19Z</time>
      </trkpt>
      <trkpt lat="43.00397" lon="-0.18016">
        <ele>1249.851318</ele>
        <time>2013-02-16T09:41:35Z</time>
      </trkpt>
      <trkpt lat="43.00403" lon="-0.18015">
        <ele>1248.40918</ele>
        <time>2013-02-16T09:41:40Z</time>
      </trkpt>
      <trkpt lat="43.00421" lon="-0.18038">
        <ele>1247.447998</ele>
        <time>2013-02-16T09:41:59Z</time>
      </trkpt>
      <trkpt lat="43.0043" lon="-0.18066">
        <ele>1244.083496</ele>
        <time>2013-02-16T09:42:16Z</time>
      </trkpt>
      <trkpt lat="43.00437" lon="-0.18105">
        <ele>1241.199219</ele>
        <time>2013-02-16T09:42:39Z</time>
      </trkpt>
      <trkpt lat="43.00445" lon="-0.18138">
        <ele>1239.757324</ele>
        <time>2013-02-16T09:42:57Z</time>
      </trkpt>
      <trkpt lat="43.00449" lon="-0.18173">
        <ele>1238.31543</ele>
        <time>2013-02-16T09:43:17Z</time>
      </trkpt>
      <trkpt lat="43.00437" lon="-0.18211">
        <ele>1235.912109</ele>
        <time>2013-02-16T09:43:40Z</time>
      </trkpt>
      <trkpt lat="43.00439" lon="-0.18227">
        <ele>1233.989502</ele>
        <time>2013-02-16T09:43:50Z</time>
      </trkpt>
      <trkpt lat="43.00445" lon="-0.18225">
        <ele>1233.989502</ele>
        <time>2013-02-16T09:43:55Z</time>
      </trkpt>
      <trkpt lat="43.0045" lon="-0.18221">
        <ele>1233.508789</ele>
        <time>2013-02-16T09:43:59Z</time>
      </trkpt>
      <trkpt lat="43.00463" lon="-0.18187">
        <ele>1231.105713</ele>
        <time>2013-02-16T09:44:22Z</time>
      </trkpt>
      <trkpt lat="43.00466" lon="-0.18188">
        <ele>1232.066895</ele>
        <time>2013-02-16T09:44:26Z</time>
      </trkpt>
      <trkpt lat="43.00465" lon="-0.18216">
        <ele>1231.105713</ele>
        <time>2013-02-16T09:44:44Z</time>
      </trkpt>
      <trkpt lat="43.00462" lon="-0.18252">
        <ele>1227.740723</ele>
        <time>2013-02-16T09:45:05Z</time>
      </trkpt>
      <trkpt lat="43.00453" lon="-0.18277">
        <ele>1225.337402</ele>
        <time>2013-02-16T09:45:21Z</time>
      </trkpt>
      <trkpt lat="43.00436" lon="-0.18285">
        <ele>1223.415039</ele>
        <time>2013-02-16T09:45:36Z</time>
      </trkpt>
      <trkpt lat="43.0041" lon="-0.18286">
        <ele>1220.531006</ele>
        <time>2013-02-16T09:45:56Z</time>
      </trkpt>
      <trkpt lat="43.00384" lon="-0.183">
        <ele>1217.166504</ele>
        <time>2013-02-16T09:46:18Z</time>
      </trkpt>
      <trkpt lat="43.00362" lon="-0.18311">
        <ele>1216.205078</ele>
        <time>2013-02-16T09:46:37Z</time>
      </trkpt>
      <trkpt lat="43.0036" lon="-0.18313">
        <ele>1216.685791</ele>
        <time>2013-02-16T09:46:41Z</time>
      </trkpt>
      <trkpt lat="43.00343" lon="-0.18335">
        <ele>1218.127686</ele>
        <time>2013-02-16T09:47:01Z</time>
      </trkpt>
      <trkpt lat="43.00327" lon="-0.18366">
        <ele>1221.011719</ele>
        <time>2013-02-16T09:47:25Z</time>
      </trkpt>
      <trkpt lat="43.00323" lon="-0.18381">
        <ele>1221.011719</ele>
        <time>2013-02-16T09:47:36Z</time>
      </trkpt>
      <trkpt lat="43.00324" lon="-0.18418">
        <ele>1222.934326</ele>
        <time>2013-02-16T09:48:00Z</time>
      </trkpt>
      <trkpt lat="43.00328" lon="-0.18453">
        <ele>1223.415039</ele>
        <time>2013-02-16T09:48:23Z</time>
      </trkpt>
      <trkpt lat="43.00327" lon="-0.18485">
        <ele>1223.895508</ele>
        <time>2013-02-16T09:48:43Z</time>
      </trkpt>
      <trkpt lat="43.00324" lon="-0.18512">
        <ele>1224.856934</ele>
        <time>2013-02-16T09:49:00Z</time>
      </trkpt>
      <trkpt lat="43.00324" lon="-0.18531">
        <ele>1225.818115</ele>
        <time>2013-02-16T09:49:13Z</time>
      </trkpt>
      <trkpt lat="43.00323" lon="-0.18547">
        <ele>1225.818115</ele>
        <time>2013-02-16T09:49:24Z</time>
      </trkpt>
      <trkpt lat="43.00328" lon="-0.18576">
        <ele>1227.260254</ele>
        <time>2013-02-16T09:49:43Z</time>
      </trkpt>
      <trkpt lat="43.00324" lon="-0.186">
        <ele>1227.740723</ele>
        <time>2013-02-16T09:49:57Z</time>
      </trkpt>
      <trkpt lat="43.00322" lon="-0.18606">
        <ele>1227.260254</ele>
        <time>2013-02-16T09:50:01Z</time>
      </trkpt>
      <trkpt lat="43.0031" lon="-0.18637">
        <ele>1228.22168</ele>
        <time>2013-02-16T09:50:22Z</time>
      </trkpt>
      <trkpt lat="43.00302" lon="-0.18671">
        <ele>1228.702393</ele>
        <time>2013-02-16T09:50:44Z</time>
      </trkpt>
      <trkpt lat="43.00298" lon="-0.187">
        <ele>1228.702393</ele>
        <time>2013-02-16T09:51:02Z</time>
      </trkpt>
      <trkpt lat="43.00289" lon="-0.18727">
        <ele>1229.663574</ele>
        <time>2013-02-16T09:51:20Z</time>
      </trkpt>
      <trkpt lat="43.00288" lon="-0.18735">
        <ele>1230.144287</ele>
        <time>2013-02-16T09:51:25Z</time>
      </trkpt>
      <trkpt lat="43.00283" lon="-0.18764">
        <ele>1230.625</ele>
        <time>2013-02-16T09:51:43Z</time>
      </trkpt>
      <trkpt lat="43.00283" lon="-0.18765">
        <ele>1230.144287</ele>
        <time>2013-02-16T09:51:44Z</time>
      </trkpt>
      <trkpt lat="43.00285" lon="-0.18774">
        <ele>1231.105713</ele>
        <time>2013-02-16T09:51:50Z</time>
      </trkpt>
      <trkpt lat="43.00291" lon="-0.1878">
        <ele>1231.105713</ele>
        <time>2013-02-16T09:51:55Z</time>
      </trkpt>
      <trkpt lat="43.00293" lon="-0.18786">
        <ele>1231.105713</ele>
        <time>2013-02-16T09:51:59Z</time>
      </trkpt>
      <trkpt lat="43.00302" lon="-0.18806">
        <ele>1231.586182</ele>
        <time>2013-02-16T09:52:14Z</time>
      </trkpt>
      <trkpt lat="43.00304" lon="-0.1881">
        <ele>1232.066895</ele>
        <time>2013-02-16T09:52:17Z</time>
      </trkpt>
      <trkpt lat="43.0031" lon="-0.18819">
        <ele>1232.547607</ele>
        <time>2013-02-16T09:52:23Z</time>
      </trkpt>
      <trkpt lat="43.00318" lon="-0.18834">
        <ele>1234.470215</ele>
        <time>2013-02-16T09:52:35Z</time>
      </trkpt>
      <trkpt lat="43.00322" lon="-0.18845">
        <ele>1235.912109</ele>
        <time>2013-02-16T09:52:45Z</time>
      </trkpt>
      <trkpt lat="43.00333" lon="-0.18859">
        <ele>1238.31543</ele>
        <time>2013-02-16T09:53:01Z</time>
      </trkpt>
      <trkpt lat="43.00349" lon="-0.18868">
        <ele>1241.679932</ele>
        <time>2013-02-16T09:53:18Z</time>
      </trkpt>
      <trkpt lat="43.0035" lon="-0.18869">
        <ele>1241.679932</ele>
        <time>2013-02-16T09:53:19Z</time>
      </trkpt>
      <trkpt lat="43.00353" lon="-0.1887">
        <ele>1241.679932</ele>
        <time>2013-02-16T09:53:21Z</time>
      </trkpt>
      <trkpt lat="43.00357" lon="-0.18877">
        <ele>1242.641357</ele>
        <time>2013-02-16T09:53:28Z</time>
      </trkpt>
      <trkpt lat="43.00359" lon="-0.18883">
        <ele>1242.160645</ele>
        <time>2013-02-16T09:53:32Z</time>
      </trkpt>
      <trkpt lat="43.00367" lon="-0.18915">
        <ele>1239.276611</ele>
        <time>2013-02-16T09:53:53Z</time>
      </trkpt>
      <trkpt lat="43.00371" lon="-0.18949">
        <ele>1236.873291</ele>
        <time>2013-02-16T09:54:13Z</time>
      </trkpt>
      <trkpt lat="43.0037" lon="-0.18963">
        <ele>1235.912109</ele>
        <time>2013-02-16T09:54:22Z</time>
      </trkpt>
      <trkpt lat="43.0037" lon="-0.18971">
        <ele>1235.912109</ele>
        <time>2013-02-16T09:54:26Z</time>
      </trkpt>
      <trkpt lat="43.00368" lon="-0.18987">
        <ele>1234.470215</ele>
        <time>2013-02-16T09:54:35Z</time>
      </trkpt>
      <trkpt lat="43.00366" lon="-0.19006">
        <ele>1233.028076</ele>
        <time>2013-02-16T09:54:46Z</time>
      </trkpt>
      <trkpt lat="43.00367" lon="-0.19031">
        <ele>1231.586182</ele>
        <time>2013-02-16T09:55:00Z</time>
      </trkpt>
      <trkpt lat="43.00367" lon="-0.19033">
        <ele>1231.586182</ele>
        <time>2013-02-16T09:55:01Z</time>
      </trkpt>
      <trkpt lat="43.00364" lon="-0.19049">
        <ele>1231.105713</ele>
        <time>2013-02-16T09:55:10Z</time>
      </trkpt>
      <trkpt lat="43.00367" lon="-0.1907">
        <ele>1231.105713</ele>
        <time>2013-02-16T09:55:22Z</time>
      </trkpt>
      <trkpt lat="43.00368" lon="-0.19075">
        <ele>1231.586182</ele>
        <time>2013-02-16T09:55:26Z</time>
      </trkpt>
      <trkpt lat="43.00372" lon="-0.19102">
        <ele>1232.547607</ele>
        <time>2013-02-16T09:55:43Z</time>
      </trkpt>
      <trkpt lat="43.00376" lon="-0.19116">
        <ele>1233.508789</ele>
        <time>2013-02-16T09:55:52Z</time>
      </trkpt>
      <trkpt lat="43.00376" lon="-0.19139">
        <ele>1234.470215</ele>
        <time>2013-02-16T09:56:06Z</time>
      </trkpt>
      <trkpt lat="43.00372" lon="-0.19168">
        <ele>1233.508789</ele>
        <time>2013-02-16T09:56:24Z</time>
      </trkpt>
      <trkpt lat="43.00364" lon="-0.19193">
        <ele>1232.547607</ele>
        <time>2013-02-16T09:56:40Z</time>
      </trkpt>
      <trkpt lat="43.00353" lon="-0.19216">
        <ele>1232.547607</ele>
        <time>2013-02-16T09:56:57Z</time>
      </trkpt>
      <trkpt lat="43.00337" lon="-0.19237">
        <ele>1233.028076</ele>
        <time>2013-02-16T09:57:15Z</time>
      </trkpt>
      <trkpt lat="43.00322" lon="-0.19257">
        <ele>1233.508789</ele>
        <time>2013-02-16T09:57:32Z</time>
      </trkpt>
      <trkpt lat="43.00303" lon="-0.1928">
        <ele>1233.028076</ele>
        <time>2013-02-16T09:57:52Z</time>
      </trkpt>
      <trkpt lat="43.00281" lon="-0.19302">
        <ele>1230.144287</ele>
        <time>2013-02-16T09:58:14Z</time>
      </trkpt>
      <trkpt lat="43.0026" lon="-0.19313">
        <ele>1231.586182</ele>
        <time>2013-02-16T09:58:33Z</time>
      </trkpt>
      <trkpt lat="43.00238" lon="-0.19319">
        <ele>1233.508789</ele>
        <time>2013-02-16T09:58:52Z</time>
      </trkpt>
      <trkpt lat="43.00218" lon="-0.19326">
        <ele>1234.950928</ele>
        <time>2013-02-16T09:59:09Z</time>
      </trkpt>
      <trkpt lat="43.00195" lon="-0.19331">
        <ele>1237.354004</ele>
        <time>2013-02-16T09:59:28Z</time>
      </trkpt>
      <trkpt lat="43.00175" lon="-0.19338">
        <ele>1239.276611</ele>
        <time>2013-02-16T09:59:45Z</time>
      </trkpt>
      <trkpt lat="43.0016" lon="-0.19337">
        <ele>1239.757324</ele>
        <time>2013-02-16T10:00:00Z</time>
      </trkpt>
      <trkpt lat="43.00145" lon="-0.19337">
        <ele>1240.718506</ele>
        <time>2013-02-16T10:00:15Z</time>
      </trkpt>
      <trkpt lat="43.00127" lon="-0.19334">
        <ele>1241.199219</ele>
        <time>2013-02-16T10:00:32Z</time>
      </trkpt>
      <trkpt lat="43.00107" lon="-0.19332">
        <ele>1241.679932</ele>
        <time>2013-02-16T10:00:49Z</time>
      </trkpt>
      <trkpt lat="43.00078" lon="-0.19332">
        <ele>1240.718506</ele>
        <time>2013-02-16T10:01:11Z</time>
      </trkpt>
      <trkpt lat="43.00057" lon="-0.1933">
        <ele>1238.796143</ele>
        <time>2013-02-16T10:01:29Z</time>
      </trkpt>
      <trkpt lat="43.0004" lon="-0.19342">
        <ele>1238.796143</ele>
        <time>2013-02-16T10:01:46Z</time>
      </trkpt>
      <trkpt lat="43.0003" lon="-0.19357">
        <ele>1238.796143</ele>
        <time>2013-02-16T10:02:02Z</time>
      </trkpt>
      <trkpt lat="43.00017" lon="-0.19378">
        <ele>1241.679932</ele>
        <time>2013-02-16T10:02:21Z</time>
      </trkpt>
      <trkpt lat="43.00003" lon="-0.19398">
        <ele>1242.641357</ele>
        <time>2013-02-16T10:02:40Z</time>
      </trkpt>
      <trkpt lat="42.99981" lon="-0.19418">
        <ele>1244.083496</ele>
        <time>2013-02-16T10:03:02Z</time>
      </trkpt>
      <trkpt lat="42.99959" lon="-0.19433">
        <ele>1245.044678</ele>
        <time>2013-02-16T10:03:23Z</time>
      </trkpt>
      <trkpt lat="42.99938" lon="-0.19442">
        <ele>1245.044678</ele>
        <time>2013-02-16T10:03:44Z</time>
      </trkpt>
      <trkpt lat="42.99929" lon="-0.19446">
        <ele>1246.006104</ele>
        <time>2013-02-16T10:04:01Z</time>
      </trkpt>
      <trkpt lat="42.99926" lon="-0.19455">
        <ele>1234.950928</ele>
        <time>2013-02-16T10:04:29Z</time>
      </trkpt>
      <trkpt lat="42.99926" lon="-0.19455">
        <ele>1252.254395</ele>
        <time>2013-02-16T10:04:30Z</time>
      </trkpt>
      <trkpt lat="42.99926" lon="-0.19454">
        <ele>1252.254395</ele>
        <time>2013-02-16T10:04:31Z</time>
      </trkpt>
      <trkpt lat="42.99926" lon="-0.19454">
        <ele>1239.276611</ele>
        <time>2013-02-16T10:04:32Z</time>
      </trkpt>
      <trkpt lat="42.99925" lon="-0.19454">
        <ele>1249.851318</ele>
        <time>2013-02-16T10:04:33Z</time>
      </trkpt>
      <trkpt lat="42.99925" lon="-0.19455">
        <ele>1246.006104</ele>
        <time>2013-02-16T10:04:34Z</time>
      </trkpt>
      <trkpt lat="42.99926" lon="-0.19454">
        <ele>1240.718506</ele>
        <time>2013-02-16T10:04:35Z</time>
      </trkpt>
      <trkpt lat="42.99926" lon="-0.19454">
        <ele>1247.928711</ele>
        <time>2013-02-16T10:04:36Z</time>
      </trkpt>
      <trkpt lat="42.99926" lon="-0.19454">
        <ele>1241.679932</ele>
        <time>2013-02-16T10:04:38Z</time>
      </trkpt>
      <trkpt lat="42.99925" lon="-0.19454">
        <ele>1244.563965</ele>
        <time>2013-02-16T10:04:39Z</time>
      </trkpt>
      <trkpt lat="42.99925" lon="-0.19455">
        <ele>1240.238037</ele>
        <time>2013-02-16T10:04:41Z</time>
      </trkpt>
      <trkpt lat="42.99924" lon="-0.19455">
        <ele>1252.254395</ele>
        <time>2013-02-16T10:04:42Z</time>
      </trkpt>
      <trkpt lat="42.99924" lon="-0.19455">
        <ele>1249.851318</ele>
        <time>2013-02-16T10:04:43Z</time>
      </trkpt>
      <trkpt lat="42.99924" lon="-0.19455">
        <ele>1246.006104</ele>
        <time>2013-02-16T10:04:44Z</time>
      </trkpt>
      <trkpt lat="42.99924" lon="-0.19455">
        <ele>1245.525391</ele>
        <time>2013-02-16T10:04:46Z</time>
      </trkpt>
      <trkpt lat="42.9992" lon="-0.19455">
        <ele>1246.486816</ele>
        <time>2013-02-16T10:05:54Z</time>
      </trkpt>
      <trkpt lat="42.99905" lon="-0.1946">
        <ele>1245.044678</ele>
        <time>2013-02-16T10:06:11Z</time>
      </trkpt>
      <trkpt lat="42.99885" lon="-0.19462">
        <ele>1246.006104</ele>
        <time>2013-02-16T10:06:29Z</time>
      </trkpt>
      <trkpt lat="42.99881" lon="-0.19462">
        <ele>1246.006104</ele>
        <time>2013-02-16T10:06:34Z</time>
      </trkpt>
      <trkpt lat="42.99865" lon="-0.19478">
        <ele>1244.083496</ele>
        <time>2013-02-16T10:06:53Z</time>
      </trkpt>
      <trkpt lat="42.99849" lon="-0.195">
        <ele>1244.563965</ele>
        <time>2013-02-16T10:07:13Z</time>
      </trkpt>
      <trkpt lat="42.99833" lon="-0.19503">
        <ele>1246.006104</ele>
        <time>2013-02-16T10:07:28Z</time>
      </trkpt>
      <trkpt lat="42.99813" lon="-0.19502">
        <ele>1248.40918</ele>
        <time>2013-02-16T10:07:48Z</time>
      </trkpt>
      <trkpt lat="42.99794" lon="-0.19496">
        <ele>1250.8125</ele>
        <time>2013-02-16T10:08:06Z</time>
      </trkpt>
      <trkpt lat="42.99781" lon="-0.19499">
        <ele>1252.254395</ele>
        <time>2013-02-16T10:08:19Z</time>
      </trkpt>
      <trkpt lat="42.99771" lon="-0.19511">
        <ele>1253.696533</ele>
        <time>2013-02-16T10:08:33Z</time>
      </trkpt>
      <trkpt lat="42.99759" lon="-0.19527">
        <ele>1256.580322</ele>
        <time>2013-02-16T10:08:49Z</time>
      </trkpt>
      <trkpt lat="42.99752" lon="-0.19527">
        <ele>1256.580322</ele>
        <time>2013-02-16T10:08:56Z</time>
      </trkpt>
      <trkpt lat="42.99733" lon="-0.19527">
        <ele>1257.541748</ele>
        <time>2013-02-16T10:09:13Z</time>
      </trkpt>
      <trkpt lat="42.99711" lon="-0.19533">
        <ele>1258.983643</ele>
        <time>2013-02-16T10:09:33Z</time>
      </trkpt>
      <trkpt lat="42.99688" lon="-0.19543">
        <ele>1258.50293</ele>
        <time>2013-02-16T10:09:52Z</time>
      </trkpt>
      <trkpt lat="42.99667" lon="-0.19558">
        <ele>1259.464355</ele>
        <time>2013-02-16T10:10:12Z</time>
      </trkpt>
      <trkpt lat="42.99645" lon="-0.19576">
        <ele>1260.425781</ele>
        <time>2013-02-16T10:10:33Z</time>
      </trkpt>
      <trkpt lat="42.99629" lon="-0.19585">
        <ele>1261.86792</ele>
        <time>2013-02-16T10:10:48Z</time>
      </trkpt>
      <trkpt lat="42.9961" lon="-0.19597">
        <ele>1262.348389</ele>
        <time>2013-02-16T10:11:07Z</time>
      </trkpt>
      <trkpt lat="42.99594" lon="-0.19607">
        <ele>1262.348389</ele>
        <time>2013-02-16T10:11:22Z</time>
      </trkpt>
      <trkpt lat="42.99573" lon="-0.19617">
        <ele>1263.309814</ele>
        <time>2013-02-16T10:11:42Z</time>
      </trkpt>
      <trkpt lat="42.99549" lon="-0.19618">
        <ele>1264.751709</ele>
        <time>2013-02-16T10:12:02Z</time>
      </trkpt>
      <trkpt lat="42.99529" lon="-0.19616">
        <ele>1265.713135</ele>
        <time>2013-02-16T10:12:19Z</time>
      </trkpt>
      <trkpt lat="42.99525" lon="-0.19617">
        <ele>1267.155029</ele>
        <time>2013-02-16T10:12:22Z</time>
      </trkpt>
      <trkpt lat="42.99508" lon="-0.19614">
        <ele>1267.155029</ele>
        <time>2013-02-16T10:12:40Z</time>
      </trkpt>
      <trkpt lat="42.99493" lon="-0.19608">
        <ele>1270.038818</ele>
        <time>2013-02-16T10:12:57Z</time>
      </trkpt>
      <trkpt lat="42.99469" lon="-0.19604">
        <ele>1271.000244</ele>
        <time>2013-02-16T10:13:18Z</time>
      </trkpt>
      <trkpt lat="42.99459" lon="-0.19603">
        <ele>1271.480713</ele>
        <time>2013-02-16T10:13:28Z</time>
      </trkpt>
      <trkpt lat="42.99441" lon="-0.19595">
        <ele>1271.961426</ele>
        <time>2013-02-16T10:13:45Z</time>
      </trkpt>
      <trkpt lat="42.99435" lon="-0.19591">
        <ele>1273.403564</ele>
        <time>2013-02-16T10:13:51Z</time>
      </trkpt>
      <trkpt lat="42.9941" lon="-0.19573">
        <ele>1276.287598</ele>
        <time>2013-02-16T10:14:15Z</time>
      </trkpt>
      <trkpt lat="42.994" lon="-0.19571">
        <ele>1275.806641</ele>
        <time>2013-02-16T10:14:27Z</time>
      </trkpt>
      <trkpt lat="42.99386" lon="-0.19586">
        <ele>1276.287598</ele>
        <time>2013-02-16T10:14:44Z</time>
      </trkpt>
      <trkpt lat="42.99389" lon="-0.1961">
        <ele>1276.768311</ele>
        <time>2013-02-16T10:14:59Z</time>
      </trkpt>
      <trkpt lat="42.9939" lon="-0.1964">
        <ele>1276.768311</ele>
        <time>2013-02-16T10:15:17Z</time>
      </trkpt>
      <trkpt lat="42.99388" lon="-0.19668">
        <ele>1278.690918</ele>
        <time>2013-02-16T10:15:35Z</time>
      </trkpt>
      <trkpt lat="42.99386" lon="-0.19694">
        <ele>1279.6521</ele>
        <time>2013-02-16T10:15:51Z</time>
      </trkpt>
      <trkpt lat="42.99385" lon="-0.19712">
        <ele>1280.613525</ele>
        <time>2013-02-16T10:16:02Z</time>
      </trkpt>
      <trkpt lat="42.99389" lon="-0.19728">
        <ele>1280.613525</ele>
        <time>2013-02-16T10:16:14Z</time>
      </trkpt>
      <trkpt lat="42.99395" lon="-0.19732">
        <ele>1280.613525</ele>
        <time>2013-02-16T10:16:19Z</time>
      </trkpt>
      <trkpt lat="42.99411" lon="-0.19743">
        <ele>1280.132812</ele>
        <time>2013-02-16T10:16:33Z</time>
      </trkpt>
      <trkpt lat="42.99428" lon="-0.1977">
        <ele>1279.171387</ele>
        <time>2013-02-16T10:16:54Z</time>
      </trkpt>
      <trkpt lat="42.99425" lon="-0.19797">
        <ele>1278.210205</ele>
        <time>2013-02-16T10:17:11Z</time>
      </trkpt>
      <trkpt lat="42.99424" lon="-0.19815">
        <ele>1278.210205</ele>
        <time>2013-02-16T10:17:23Z</time>
      </trkpt>
      <trkpt lat="42.99423" lon="-0.19834">
        <ele>1277.729492</ele>
        <time>2013-02-16T10:17:39Z</time>
      </trkpt>
      <trkpt lat="42.99423" lon="-0.19854">
        <ele>1277.249023</ele>
        <time>2013-02-16T10:18:05Z</time>
      </trkpt>
      <trkpt lat="42.99426" lon="-0.19889">
        <ele>1274.845459</ele>
        <time>2013-02-16T10:18:26Z</time>
      </trkpt>
      <trkpt lat="42.9943" lon="-0.19915">
        <ele>1275.325928</ele>
        <time>2013-02-16T10:18:41Z</time>
      </trkpt>
      <trkpt lat="42.99419" lon="-0.19942">
        <ele>1273.403564</ele>
        <time>2013-02-16T10:18:59Z</time>
      </trkpt>
      <trkpt lat="42.99398" lon="-0.19955">
        <ele>1271.961426</ele>
        <time>2013-02-16T10:19:17Z</time>
      </trkpt>
      <trkpt lat="42.99387" lon="-0.19974">
        <ele>1271.000244</ele>
        <time>2013-02-16T10:19:33Z</time>
      </trkpt>
      <trkpt lat="42.9938" lon="-0.19992">
        <ele>1270.519531</ele>
        <time>2013-02-16T10:19:45Z</time>
      </trkpt>
      <trkpt lat="42.99375" lon="-0.20011">
        <ele>1270.038818</ele>
        <time>2013-02-16T10:19:58Z</time>
      </trkpt>
      <trkpt lat="42.99369" lon="-0.20042">
        <ele>1268.596924</ele>
        <time>2013-02-16T10:20:18Z</time>
      </trkpt>
      <trkpt lat="42.99368" lon="-0.20081">
        <ele>1270.519531</ele>
        <time>2013-02-16T10:20:40Z</time>
      </trkpt>
      <trkpt lat="42.99367" lon="-0.20092">
        <ele>1270.519531</ele>
        <time>2013-02-16T10:20:47Z</time>
      </trkpt>
      <trkpt lat="42.99367" lon="-0.20098">
        <ele>1271.000244</ele>
        <time>2013-02-16T10:20:51Z</time>
      </trkpt>
      <trkpt lat="42.99367" lon="-0.20129">
        <ele>1271.480713</ele>
        <time>2013-02-16T10:21:11Z</time>
      </trkpt>
      <trkpt lat="42.9937" lon="-0.20153">
        <ele>1271.961426</ele>
        <time>2013-02-16T10:21:24Z</time>
      </trkpt>
      <trkpt lat="42.9937" lon="-0.20164">
        <ele>1271.480713</ele>
        <time>2013-02-16T10:21:31Z</time>
      </trkpt>
      <trkpt lat="42.99371" lon="-0.20168">
        <ele>1271.000244</ele>
        <time>2013-02-16T10:21:34Z</time>
      </trkpt>
      <trkpt lat="42.99376" lon="-0.20168">
        <ele>1271.480713</ele>
        <time>2013-02-16T10:21:40Z</time>
      </trkpt>
      <trkpt lat="42.99389" lon="-0.20159">
        <ele>1271.961426</ele>
        <time>2013-02-16T10:21:53Z</time>
      </trkpt>
      <trkpt lat="42.99395" lon="-0.20158">
        <ele>1271.961426</ele>
        <time>2013-02-16T10:21:59Z</time>
      </trkpt>
      <trkpt lat="42.99401" lon="-0.20167">
        <ele>1271.961426</ele>
        <time>2013-02-16T10:22:08Z</time>
      </trkpt>
      <trkpt lat="42.9941" lon="-0.20193">
        <ele>1272.442139</ele>
        <time>2013-02-16T10:22:25Z</time>
      </trkpt>
      <trkpt lat="42.99421" lon="-0.20214">
        <ele>1272.922852</ele>
        <time>2013-02-16T10:22:42Z</time>
      </trkpt>
      <trkpt lat="42.99439" lon="-0.20225">
        <ele>1273.884033</ele>
        <time>2013-02-16T10:23:00Z</time>
      </trkpt>
      <trkpt lat="42.9946" lon="-0.20238">
        <ele>1273.884033</ele>
        <time>2013-02-16T10:23:19Z</time>
      </trkpt>
      <trkpt lat="42.99461" lon="-0.20238">
        <ele>1272.922852</ele>
        <time>2013-02-16T10:23:20Z</time>
      </trkpt>
      <trkpt lat="42.99477" lon="-0.20222">
        <ele>1272.922852</ele>
        <time>2013-02-16T10:23:36Z</time>
      </trkpt>
      <trkpt lat="42.99488" lon="-0.20199">
        <ele>1272.442139</ele>
        <time>2013-02-16T10:23:54Z</time>
      </trkpt>
      <trkpt lat="42.99505" lon="-0.20172">
        <ele>1272.442139</ele>
        <time>2013-02-16T10:24:15Z</time>
      </trkpt>
      <trkpt lat="42.99523" lon="-0.20157">
        <ele>1272.922852</ele>
        <time>2013-02-16T10:24:33Z</time>
      </trkpt>
      <trkpt lat="42.99542" lon="-0.20157">
        <ele>1274.845459</ele>
        <time>2013-02-16T10:24:51Z</time>
      </trkpt>
      <trkpt lat="42.99562" lon="-0.20157">
        <ele>1276.768311</ele>
        <time>2013-02-16T10:25:08Z</time>
      </trkpt>
      <trkpt lat="42.99581" lon="-0.20163">
        <ele>1278.210205</ele>
        <time>2013-02-16T10:25:25Z</time>
      </trkpt>
      <trkpt lat="42.99587" lon="-0.20172">
        <ele>1278.690918</ele>
        <time>2013-02-16T10:25:33Z</time>
      </trkpt>
      <trkpt lat="42.99593" lon="-0.20182">
        <ele>1279.171387</ele>
        <time>2013-02-16T10:25:41Z</time>
      </trkpt>
      <trkpt lat="42.99613" lon="-0.20191">
        <ele>1280.132812</ele>
        <time>2013-02-16T10:26:00Z</time>
      </trkpt>
      <trkpt lat="42.99615" lon="-0.20191">
        <ele>1280.613525</ele>
        <time>2013-02-16T10:26:02Z</time>
      </trkpt>
      <trkpt lat="42.99617" lon="-0.20189">
        <ele>1281.094238</ele>
        <time>2013-02-16T10:26:05Z</time>
      </trkpt>
      <trkpt lat="42.99628" lon="-0.20187">
        <ele>1281.094238</ele>
        <time>2013-02-16T10:26:14Z</time>
      </trkpt>
      <trkpt lat="42.99643" lon="-0.20187">
        <ele>1281.094238</ele>
        <time>2013-02-16T10:26:26Z</time>
      </trkpt>
      <trkpt lat="42.99652" lon="-0.20185">
        <ele>1281.574707</ele>
        <time>2013-02-16T10:26:34Z</time>
      </trkpt>
      <trkpt lat="42.99668" lon="-0.20186">
        <ele>1283.016602</ele>
        <time>2013-02-16T10:26:48Z</time>
      </trkpt>
      <trkpt lat="42.99669" lon="-0.20186">
        <ele>1283.016602</ele>
        <time>2013-02-16T10:26:50Z</time>
      </trkpt>
      <trkpt lat="42.99685" lon="-0.20197">
        <ele>1283.497314</ele>
        <time>2013-02-16T10:27:05Z</time>
      </trkpt>
      <trkpt lat="42.99703" lon="-0.202">
        <ele>1282.536133</ele>
        <time>2013-02-16T10:27:23Z</time>
      </trkpt>
      <trkpt lat="42.99704" lon="-0.20198">
        <ele>1282.536133</ele>
        <time>2013-02-16T10:27:25Z</time>
      </trkpt>
      <trkpt lat="42.99711" lon="-0.20181">
        <ele>1283.978027</ele>
        <time>2013-02-16T10:27:39Z</time>
      </trkpt>
      <trkpt lat="42.99723" lon="-0.20174">
        <ele>1285.900635</ele>
        <time>2013-02-16T10:27:53Z</time>
      </trkpt>
      <trkpt lat="42.99737" lon="-0.20176">
        <ele>1288.303955</ele>
        <time>2013-02-16T10:28:06Z</time>
      </trkpt>
      <trkpt lat="42.99752" lon="-0.20182">
        <ele>1291.187744</ele>
        <time>2013-02-16T10:28:24Z</time>
      </trkpt>
      <trkpt lat="42.99765" lon="-0.20194">
        <ele>1293.110596</ele>
        <time>2013-02-16T10:28:41Z</time>
      </trkpt>
      <trkpt lat="42.99781" lon="-0.2021">
        <ele>1295.994629</ele>
        <time>2013-02-16T10:28:57Z</time>
      </trkpt>
      <trkpt lat="42.99795" lon="-0.20224">
        <ele>1295.033203</ele>
        <time>2013-02-16T10:29:14Z</time>
      </trkpt>
      <trkpt lat="42.99803" lon="-0.20219">
        <ele>1296.955811</ele>
        <time>2013-02-16T10:29:25Z</time>
      </trkpt>
      <trkpt lat="42.99812" lon="-0.20208">
        <ele>1297.917236</ele>
        <time>2013-02-16T10:29:37Z</time>
      </trkpt>
      <trkpt lat="42.99814" lon="-0.20204">
        <ele>1298.878418</ele>
        <time>2013-02-16T10:29:41Z</time>
      </trkpt>
      <trkpt lat="42.99825" lon="-0.20202">
        <ele>1299.359131</ele>
        <time>2013-02-16T10:29:54Z</time>
      </trkpt>
      <trkpt lat="42.99837" lon="-0.20204">
        <ele>1300.801025</ele>
        <time>2013-02-16T10:30:09Z</time>
      </trkpt>
      <trkpt lat="42.99852" lon="-0.2021">
        <ele>1303.685059</ele>
        <time>2013-02-16T10:30:25Z</time>
      </trkpt>
      <trkpt lat="42.99859" lon="-0.20212">
        <ele>1304.165771</ele>
        <time>2013-02-16T10:30:32Z</time>
      </trkpt>
      <trkpt lat="42.99875" lon="-0.20201">
        <ele>1306.088135</ele>
        <time>2013-02-16T10:30:50Z</time>
      </trkpt>
      <trkpt lat="42.99893" lon="-0.20184">
        <ele>1308.972412</ele>
        <time>2013-02-16T10:31:12Z</time>
      </trkpt>
      <trkpt lat="42.99908" lon="-0.20176">
        <ele>1308.972412</ele>
        <time>2013-02-16T10:31:29Z</time>
      </trkpt>
      <trkpt lat="42.99922" lon="-0.20189">
        <ele>1310.414307</ele>
        <time>2013-02-16T10:31:48Z</time>
      </trkpt>
      <trkpt lat="42.9993" lon="-0.20205">
        <ele>1311.856445</ele>
        <time>2013-02-16T10:32:03Z</time>
      </trkpt>
      <trkpt lat="42.99933" lon="-0.20212">
        <ele>1311.856445</ele>
        <time>2013-02-16T10:32:09Z</time>
      </trkpt>
      <trkpt lat="42.99945" lon="-0.20229">
        <ele>1312.336914</ele>
        <time>2013-02-16T10:32:26Z</time>
      </trkpt>
      <trkpt lat="42.99948" lon="-0.20232">
        <ele>1312.817627</ele>
        <time>2013-02-16T10:32:29Z</time>
      </trkpt>
      <trkpt lat="42.99956" lon="-0.20238">
        <ele>1312.336914</ele>
        <time>2013-02-16T10:32:38Z</time>
      </trkpt>
      <trkpt lat="42.99976" lon="-0.2024">
        <ele>1312.336914</ele>
        <time>2013-02-16T10:32:56Z</time>
      </trkpt>
      <trkpt lat="43" lon="-0.20239">
        <ele>1312.817627</ele>
        <time>2013-02-16T10:33:17Z</time>
      </trkpt>
      <trkpt lat="43.00018" lon="-0.20238">
        <ele>1311.856445</ele>
        <time>2013-02-16T10:33:32Z</time>
      </trkpt>
      <trkpt lat="43.00037" lon="-0.20235">
        <ele>1311.856445</ele>
        <time>2013-02-16T10:33:50Z</time>
      </trkpt>
      <trkpt lat="43.00054" lon="-0.20231">
        <ele>1312.817627</ele>
        <time>2013-02-16T10:34:06Z</time>
      </trkpt>
      <trkpt lat="43.00067" lon="-0.20225">
        <ele>1312.336914</ele>
        <time>2013-02-16T10:34:18Z</time>
      </trkpt>
      <trkpt lat="43.00079" lon="-0.20223">
        <ele>1310.89502</ele>
        <time>2013-02-16T10:34:30Z</time>
      </trkpt>
      <trkpt lat="43.00085" lon="-0.20241">
        <ele>1310.414307</ele>
        <time>2013-02-16T10:34:45Z</time>
      </trkpt>
      <trkpt lat="43.00086" lon="-0.20245">
        <ele>1310.89502</ele>
        <time>2013-02-16T10:34:48Z</time>
      </trkpt>
      <trkpt lat="43.00087" lon="-0.20278">
        <ele>1309.453125</ele>
        <time>2013-02-16T10:35:08Z</time>
      </trkpt>
      <trkpt lat="43.00088" lon="-0.2031">
        <ele>1308.972412</ele>
        <time>2013-02-16T10:35:28Z</time>
      </trkpt>
      <trkpt lat="43.00084" lon="-0.20341">
        <ele>1308.491699</ele>
        <time>2013-02-16T10:35:50Z</time>
      </trkpt>
      <trkpt lat="43.00079" lon="-0.20355">
        <ele>1308.491699</ele>
        <time>2013-02-16T10:36:07Z</time>
      </trkpt>
      <trkpt lat="43.00076" lon="-0.20366">
        <ele>1311.375732</ele>
        <time>2013-02-16T10:36:16Z</time>
      </trkpt>
      <trkpt lat="43.0007" lon="-0.20383">
        <ele>1313.778809</ele>
        <time>2013-02-16T10:36:32Z</time>
      </trkpt>
      <trkpt lat="43.00061" lon="-0.20405">
        <ele>1315.70166</ele>
        <time>2013-02-16T10:36:53Z</time>
      </trkpt>
      <trkpt lat="43.00052" lon="-0.2043">
        <ele>1317.624023</ele>
        <time>2013-02-16T10:37:15Z</time>
      </trkpt>
      <trkpt lat="43.0005" lon="-0.20441">
        <ele>1320.027344</ele>
        <time>2013-02-16T10:37:24Z</time>
      </trkpt>
      <trkpt lat="43.0005" lon="-0.20446">
        <ele>1321.469238</ele>
        <time>2013-02-16T10:37:29Z</time>
      </trkpt>
      <trkpt lat="43.00045" lon="-0.20467">
        <ele>1322.911377</ele>
        <time>2013-02-16T10:37:46Z</time>
      </trkpt>
      <trkpt lat="43.00041" lon="-0.20487">
        <ele>1325.79541</ele>
        <time>2013-02-16T10:38:03Z</time>
      </trkpt>
      <trkpt lat="43.00035" lon="-0.20504">
        <ele>1329.159912</ele>
        <time>2013-02-16T10:38:18Z</time>
      </trkpt>
      <trkpt lat="43.00028" lon="-0.20524">
        <ele>1332.043945</ele>
        <time>2013-02-16T10:38:36Z</time>
      </trkpt>
      <trkpt lat="43.00023" lon="-0.20542">
        <ele>1333.966553</ele>
        <time>2013-02-16T10:38:54Z</time>
      </trkpt>
      <trkpt lat="43.00016" lon="-0.20555">
        <ele>1337.331055</ele>
        <time>2013-02-16T10:39:08Z</time>
      </trkpt>
      <trkpt lat="43.0001" lon="-0.20567">
        <ele>1338.773193</ele>
        <time>2013-02-16T10:39:25Z</time>
      </trkpt>
      <trkpt lat="43.00008" lon="-0.20573">
        <ele>1339.253662</ele>
        <time>2013-02-16T10:39:45Z</time>
      </trkpt>
      <trkpt lat="43.00008" lon="-0.2057">
        <ele>1339.253662</ele>
        <time>2013-02-16T10:40:21Z</time>
      </trkpt>
      <trkpt lat="43.00013" lon="-0.2055">
        <ele>1339.253662</ele>
        <time>2013-02-16T10:40:39Z</time>
      </trkpt>
      <trkpt lat="43.00018" lon="-0.20526">
        <ele>1339.253662</ele>
        <time>2013-02-16T10:40:56Z</time>
      </trkpt>
      <trkpt lat="43.0002" lon="-0.20493">
        <ele>1340.215332</ele>
        <time>2013-02-16T10:41:18Z</time>
      </trkpt>
      <trkpt lat="43.00017" lon="-0.20462">
        <ele>1341.657227</ele>
        <time>2013-02-16T10:41:39Z</time>
      </trkpt>
      <trkpt lat="43.00013" lon="-0.20431">
        <ele>1342.618652</ele>
        <time>2013-02-16T10:42:00Z</time>
      </trkpt>
      <trkpt lat="43.00006" lon="-0.20399">
        <ele>1342.137939</ele>
        <time>2013-02-16T10:42:23Z</time>
      </trkpt>
      <trkpt lat="42.99999" lon="-0.20365">
        <ele>1342.618652</ele>
        <time>2013-02-16T10:42:46Z</time>
      </trkpt>
      <trkpt lat="42.99994" lon="-0.20332">
        <ele>1343.579834</ele>
        <time>2013-02-16T10:43:08Z</time>
      </trkpt>
      <trkpt lat="42.99979" lon="-0.20312">
        <ele>1344.541016</ele>
        <time>2013-02-16T10:43:26Z</time>
      </trkpt>
      <trkpt lat="42.99958" lon="-0.20313">
        <ele>1344.060547</ele>
        <time>2013-02-16T10:43:44Z</time>
      </trkpt>
      <trkpt lat="42.99945" lon="-0.20314">
        <ele>1344.541016</ele>
        <time>2013-02-16T10:43:57Z</time>
      </trkpt>
      <trkpt lat="42.99924" lon="-0.20311">
        <ele>1344.541016</ele>
        <time>2013-02-16T10:44:15Z</time>
      </trkpt>
      <trkpt lat="42.99912" lon="-0.20308">
        <ele>1345.021729</ele>
        <time>2013-02-16T10:44:25Z</time>
      </trkpt>
      <trkpt lat="42.99906" lon="-0.20311">
        <ele>1345.021729</ele>
        <time>2013-02-16T10:44:32Z</time>
      </trkpt>
      <trkpt lat="42.99884" lon="-0.20335">
        <ele>1345.983154</ele>
        <time>2013-02-16T10:44:55Z</time>
      </trkpt>
      <trkpt lat="42.99867" lon="-0.2035">
        <ele>1346.463867</ele>
        <time>2013-02-16T10:45:13Z</time>
      </trkpt>
      <trkpt lat="42.99848" lon="-0.20358">
        <ele>1346.944336</ele>
        <time>2013-02-16T10:45:32Z</time>
      </trkpt>
      <trkpt lat="42.99829" lon="-0.20369">
        <ele>1347.425049</ele>
        <time>2013-02-16T10:45:50Z</time>
      </trkpt>
      <trkpt lat="42.99804" lon="-0.20377">
        <ele>1348.38623</ele>
        <time>2013-02-16T10:46:10Z</time>
      </trkpt>
      <trkpt lat="42.99785" lon="-0.20372">
        <ele>1349.347656</ele>
        <time>2013-02-16T10:46:29Z</time>
      </trkpt>
      <trkpt lat="42.99783" lon="-0.2037">
        <ele>1349.347656</ele>
        <time>2013-02-16T10:46:32Z</time>
      </trkpt>
      <trkpt lat="42.99764" lon="-0.20354">
        <ele>1348.866943</ele>
        <time>2013-02-16T10:46:49Z</time>
      </trkpt>
      <trkpt lat="42.99744" lon="-0.20346">
        <ele>1349.347656</ele>
        <time>2013-02-16T10:47:08Z</time>
      </trkpt>
      <trkpt lat="42.99724" lon="-0.20352">
        <ele>1350.309082</ele>
        <time>2013-02-16T10:47:26Z</time>
      </trkpt>
      <trkpt lat="42.99704" lon="-0.20357">
        <ele>1350.309082</ele>
        <time>2013-02-16T10:47:44Z</time>
      </trkpt>
      <trkpt lat="42.99685" lon="-0.20343">
        <ele>1350.309082</ele>
        <time>2013-02-16T10:48:01Z</time>
      </trkpt>
      <trkpt lat="42.99663" lon="-0.20339">
        <ele>1350.789551</ele>
        <time>2013-02-16T10:48:21Z</time>
      </trkpt>
      <trkpt lat="42.99643" lon="-0.20344">
        <ele>1351.750977</ele>
        <time>2013-02-16T10:48:39Z</time>
      </trkpt>
      <trkpt lat="42.99628" lon="-0.20347">
        <ele>1353.192871</ele>
        <time>2013-02-16T10:48:54Z</time>
      </trkpt>
      <trkpt lat="42.99611" lon="-0.20356">
        <ele>1354.154297</ele>
        <time>2013-02-16T10:49:09Z</time>
      </trkpt>
      <trkpt lat="42.99593" lon="-0.2037">
        <ele>1353.673584</ele>
        <time>2013-02-16T10:49:27Z</time>
      </trkpt>
      <trkpt lat="42.99575" lon="-0.20378">
        <ele>1354.154297</ele>
        <time>2013-02-16T10:49:43Z</time>
      </trkpt>
      <trkpt lat="42.99571" lon="-0.20381">
        <ele>1353.673584</ele>
        <time>2013-02-16T10:49:48Z</time>
      </trkpt>
      <trkpt lat="42.99558" lon="-0.20398">
        <ele>1354.154297</ele>
        <time>2013-02-16T10:50:02Z</time>
      </trkpt>
      <trkpt lat="42.99551" lon="-0.20425">
        <ele>1354.634766</ele>
        <time>2013-02-16T10:50:20Z</time>
      </trkpt>
      <trkpt lat="42.99535" lon="-0.20437">
        <ele>1355.115479</ele>
        <time>2013-02-16T10:50:37Z</time>
      </trkpt>
      <trkpt lat="42.99517" lon="-0.20455">
        <ele>1355.596191</ele>
        <time>2013-02-16T10:50:57Z</time>
      </trkpt>
      <trkpt lat="42.9951" lon="-0.20482">
        <ele>1356.557617</ele>
        <time>2013-02-16T10:51:16Z</time>
      </trkpt>
      <trkpt lat="42.99499" lon="-0.20506">
        <ele>1356.076904</ele>
        <time>2013-02-16T10:51:35Z</time>
      </trkpt>
      <trkpt lat="42.99495" lon="-0.20509">
        <ele>1356.557617</ele>
        <time>2013-02-16T10:51:41Z</time>
      </trkpt>
      <trkpt lat="42.99478" lon="-0.20502">
        <ele>1357.519043</ele>
        <time>2013-02-16T10:51:57Z</time>
      </trkpt>
      <trkpt lat="42.99458" lon="-0.20496">
        <ele>1357.519043</ele>
        <time>2013-02-16T10:52:15Z</time>
      </trkpt>
      <trkpt lat="42.9944" lon="-0.20476">
        <ele>1357.999756</ele>
        <time>2013-02-16T10:52:34Z</time>
      </trkpt>
      <trkpt lat="42.99423" lon="-0.20453">
        <ele>1357.999756</ele>
        <time>2013-02-16T10:52:52Z</time>
      </trkpt>
      <trkpt lat="42.99408" lon="-0.2043">
        <ele>1359.44165</ele>
        <time>2013-02-16T10:53:11Z</time>
      </trkpt>
      <trkpt lat="42.99393" lon="-0.20402">
        <ele>1359.922119</ele>
        <time>2013-02-16T10:53:32Z</time>
      </trkpt>
      <trkpt lat="42.99374" lon="-0.20382">
        <ele>1358.960938</ele>
        <time>2013-02-16T10:53:52Z</time>
      </trkpt>
      <trkpt lat="42.99351" lon="-0.20388">
        <ele>1359.922119</ele>
        <time>2013-02-16T10:54:12Z</time>
      </trkpt>
      <trkpt lat="42.99329" lon="-0.20404">
        <ele>1361.364258</ele>
        <time>2013-02-16T10:54:33Z</time>
      </trkpt>
      <trkpt lat="42.99311" lon="-0.20415">
        <ele>1362.325439</ele>
        <time>2013-02-16T10:54:47Z</time>
      </trkpt>
      <trkpt lat="42.99288" lon="-0.20418">
        <ele>1362.325439</ele>
        <time>2013-02-16T10:55:07Z</time>
      </trkpt>
      <trkpt lat="42.99277" lon="-0.2041">
        <ele>1362.325439</ele>
        <time>2013-02-16T10:55:19Z</time>
      </trkpt>
      <trkpt lat="42.99261" lon="-0.20384">
        <ele>1361.844971</ele>
        <time>2013-02-16T10:55:38Z</time>
      </trkpt>
      <trkpt lat="42.99247" lon="-0.20361">
        <ele>1362.325439</ele>
        <time>2013-02-16T10:55:57Z</time>
      </trkpt>
      <trkpt lat="42.99223" lon="-0.20349">
        <ele>1363.767334</ele>
        <time>2013-02-16T10:56:19Z</time>
      </trkpt>
      <trkpt lat="42.99207" lon="-0.20344">
        <ele>1364.248047</ele>
        <time>2013-02-16T10:56:35Z</time>
      </trkpt>
      <trkpt lat="42.99187" lon="-0.20333">
        <ele>1364.72876</ele>
        <time>2013-02-16T10:56:55Z</time>
      </trkpt>
      <trkpt lat="42.99167" lon="-0.20322">
        <ele>1365.690186</ele>
        <time>2013-02-16T10:57:14Z</time>
      </trkpt>
      <trkpt lat="42.99149" lon="-0.20306">
        <ele>1366.170654</ele>
        <time>2013-02-16T10:57:36Z</time>
      </trkpt>
      <trkpt lat="42.99143" lon="-0.20298">
        <ele>1366.651367</ele>
        <time>2013-02-16T10:57:47Z</time>
      </trkpt>
      <trkpt lat="42.99123" lon="-0.20299">
        <ele>1367.13208</ele>
        <time>2013-02-16T10:58:08Z</time>
      </trkpt>
      <trkpt lat="42.99116" lon="-0.20305">
        <ele>1367.612549</ele>
        <time>2013-02-16T10:58:27Z</time>
      </trkpt>
      <trkpt lat="42.9911" lon="-0.20297">
        <ele>1367.13208</ele>
        <time>2013-02-16T10:58:51Z</time>
      </trkpt>
      <trkpt lat="42.99106" lon="-0.20294">
        <ele>1367.612549</ele>
        <time>2013-02-16T10:58:57Z</time>
      </trkpt>
      <trkpt lat="42.99105" lon="-0.20281">
        <ele>1368.573975</ele>
        <time>2013-02-16T10:59:18Z</time>
      </trkpt>
      <trkpt lat="42.99105" lon="-0.2028">
        <ele>1369.054688</ele>
        <time>2013-02-16T10:59:24Z</time>
      </trkpt>
    </trkseg>
  </trk>
</gpx>